SCP
0 0 0 0 0 0 0 0 0 0 0 0 0 0 0 0 0 0 0 0 0 0 0 0 0 0 0 0 0 0 0 0 0 -0 0 0 0 1 1 0 0 0 0 0
0 0 0 0 0 0 0 0 0 0 0 0 0 0 0 0 0 0 0 0 0 0 0 0 0 0 0 0 0 0 0 0 0 0 0 0 0 0 0 1 0 1 1 0
0 0 0 0 0 0 0 0 0 0 0 0 0 0 0 0 0 0 0 0 0 0 0 0 0 0 0 0 0 0 0 0 0 0 0 0 0 0 0 0 0 1 0 0
0 0 0 0 0 0 0 0 0 0 0 0 0 0 0 0 0 0 0 0 0 0 0 0 0 0 0 0 0 0 0 0 0 0 0 0 0 0 0 0 0 0 0 0
0 0 0 -0 0 0 0 0 0 0 0 0 0 0 0 0 0 0 0 0 0 0 0 0 0 0 0 0 0 0 0 0 0 0 0 0 0 -0 -0 -0 0 0 0 0
0 0 0 0 0 0 0 0 0 0 0 0 0 0 0 0 0 0 0 0 0 0 0 0 0 0 0 0 0 0 0 0 0 0 0 0 0 0 -0 -0 -0 0 0 0
-0 0 0 0 0 0 0 0 0 0 0 0 0 0 0 0 0 0 0 0 0 0 0 0 0 0 0 0 0 0 0 0 0 0 0 0 0 0 0 -0 0 0 0 0
0 0 0 0 0 0 0 0 0 0 0 0 0 0 0 0 0 0 0 0 0 0 0 0 0 0 0 0 0 0 0 0 0 0 0 0 0 0 0 0 0 0 0 0
0 0 0 0 0 0 0 0 0 0 0 0 0 0 0 0 0 0 0 0 0 0 0 0 0 0 0 0 0 0 0 0 0 0 0 0 1 0 0 0 0 0 0 0
0 0 0 0 0 0 0 0 0 0 0 0 0 0 0 0 0 0 0 0 0 0 0 0 0 0 0 0 0 0 0 0 0 0 0 1 1 0 0 0 0 0 0 0
0 0 0 0 0 0 0 0 0 0 0 0 0 0 0 0 0 0 0 0 0 0 0 0 0 0 0 0 0 0 0 0 0 0 1 1 1 1 0 0 0 0 0 0
0 0 0 0 0 0 0 0 0 0 0 0 0 0 0 0 0 0 0 0 0 0 0 0 0 0 0 0 0 0 0 0 0 0 1 1 1 0 0 0 0 0 0 -0
0 0 0 0 0 0 0 0 0 0 0 0 0 0 0 0 0 0 0 0 0 0 0 0 0 0 0 0 0 0 0 0 0 0 0 0 0 0 0 0 0 0 0 0
0 0 0 0 0 0 0 0 0 0 0 0 0 0 0 0 0 0 0 0 0 0 0 0 0 0 0 0 0 0 0 0 0 0 0 0 0 0 0 0 0 0 0 0
0 0 0 0 0 0 0 0 0 0 0 0 0 0 0 0 0 0 0 0 0 0 0 0 0 0 0 0 0 0 0 0 0 0 0 0 0 0 0 0 0 0 0 0
0 0 0 0 0 0 0 0 0 0 0 0 0 0 0 0 0 0 -0 0 -0 0 0 0 0 0 0 0 0 0 0 0 0 0 0 0 0 0 0 0 0 0 0 0
0 0 0 0 0 0 0 0 0 0 0 0 0 0 0 0 0 0 0 -0 0 0 0 0 0 0 0 0 0 0 0 0 0 0 0 0 0 0 0 0 0 0 0 0
0 0 0 0 0 0 0 0 0 0 0 0 0 0 0 0 0 0 0 0 0 0 0 0 0 0 0 0 0 0 0 0 0 0 0 0 0 0 0 0 0 0 0 0
0 0 0 0 0 0 0 0 0 0 0 0 0 0 0 0 0 0 0 0 0 0 0 0 0 -0 0 0 0 0 0 0 0 0 0 0 -0 0 0 0 0 0 0 0
0 0 0 0 0 0 0 0 0 0 0 -0 0 0 0 0 0 0 0 0 0 0 -0 -0 -0 -0 -0 0 0 0 0 0 0 0 0 0 0 0 0 0 0 0 0 0
0 0 0 0 0 0 0 0 0 0 0 0 0 0 0 0 0 0 0 0 0 -0 0 0 0 -0 0 0 0 0 0 0 0 0 0 0 0 0 0 0 0 0 0 0
0 0 0 0 0 0 0 0 0 0 0 0 0 0 0 -0 0 0 0 0 -0 -0 0 0 -0 0 0 0 0 0 0 0 0 0 0 0 0 0 0 0 -0 0 0 0
0 0 0 0 0 0 0 0 0 0 0 0 0 -0 0 0 -0 -0 0 -0 -0 -0 -0 -0 0 0 -0 0 0 0 0 0 0 0 0 0 -0 -0 -0 0 -0 -0 0 0
0 0 0 0 0 0 0 0 0 0 0 0 0 0 0 0 0 0 0 -0 -0 0 -0 -0 0 0 -0 0 0 0 0 0 0 -0 0 -0 -0 -0 -0 -0 -0 0 0 0
0 0 0 0 0 0 0 0 0 0 0 0 0 0 0 0 0 0 0 -0 -0 0 -0 -0 0 -0 0 -0 -0 -0 -0 -0 -0 -0 -0 -0 -0 -0 -0 -0 0 0 -0 0
-0 -0 -0 -0 -0 0 0 0 0 0 0 0 0 0 0 0 0 0 -0 -0 -0 0 0 -0 0 -0 -0 -0 -0 -0 -0 0 0 -0 -0 -0 -0 -0 -0 -0 0 0 0 0
-0 -0 -0 0 0 0 0 0 0 0 0 0 0 0 0 0 0 0 -0 -0 -0 0 -0 -0 -0 -0 0 -0 -0 -0 0 0 0 0 0 -0 -0 0 0 0 0 0 0 0
Wind_Speed_500mb
20 14 16 19 19 19 22 22 20 18 14 12 14 5 5 6 10 16 20 21 21 23 26 30 31 31 28 27 27 27 29 24 21 17 19 22 21 20 21 23 28 34 40 43
23 9 17 22 24 25 26 25 24 22 26 22 5 12 13 12 14 21 25 25 27 31 33 32 33 35 35 34 32 30 28 23 21 20 16 19 19 18 18 18 20 29 34 42
23 3 19 27 30 34 33 26 19 22 6 8 10 11 15 21 25 29 30 29 35 39 38 37 37 35 37 37 36 32 28 24 23 20 19 14 17 18 19 19 20 22 30 42
16 12 22 3 7 15 20 17 14 12 8 2 8 18 28 30 22 22 30 38 41 40 40 40 40 41 40 39 38 36 33 28 25 27 23 17 15 17 21 22 23 25 24 28
8 17 22 31 9 8 12 15 12 15 5 9 10 25 32 7 15 30 41 43 45 42 43 46 46 43 42 43 43 40 39 34 30 28 29 22 16 15 18 23 25 27 31 31
14 9 7 12 7 1 3 20 14 3 3 7 19 19 17 35 37 41 46 49 50 52 52 49 47 45 46 45 44 45 41 39 36 32 31 29 22 17 19 22 23 27 30 32
19 10 14 8 8 4 14 6 11 5 14 21 21 28 40 44 45 48 49 51 51 51 46 50 50 45 45 45 46 44 45 43 40 35 33 35 28 20 19 21 25 29 33 33
19 11 16 9 12 13 9 3 9 20 23 25 28 35 40 45 48 54 52 49 44 46 45 40 38 39 41 43 43 45 45 46 42 37 34 37 32 24 22 21 25 28 30 31
12 7 4 10 6 2 7 18 25 26 24 25 32 40 44 45 47 45 48 42 35 33 34 36 35 36 45 51 44 44 45 44 44 39 37 40 33 27 20 21 18 22 27 30
6 11 9 16 17 18 21 21 23 26 31 34 36 39 43 49 44 41 38 38 37 35 36 42 38 39 39 41 40 42 44 43 43 43 40 37 33 28 21 16 16 21 27 36
17 23 21 20 11 10 15 23 29 32 29 29 29 39 41 43 40 39 41 42 40 42 42 44 43 43 43 43 36 40 40 39 41 43 39 37 36 30 25 24 21 26 32 38
11 11 7 7 11 19 27 32 32 30 34 31 31 38 42 39 37 40 44 44 45 41 42 42 40 42 43 35 32 34 34 34 36 40 40 24 25 23 21 19 19 23 24 27
11 8 20 24 24 24 24 28 31 29 31 36 38 42 35 33 34 42 41 42 37 38 36 32 32 35 33 31 33 31 33 30 32 31 44 42 14 9 15 26 18 18 18 16
16 18 22 8 19 24 18 21 27 33 32 31 30 27 26 31 35 37 38 36 28 25 22 20 23 26 29 32 31 29 28 30 31 34 38 38 50 56 30 25 22 21 19 16
15 14 22 21 14 16 21 25 27 30 26 27 26 27 26 30 34 33 31 24 18 13 17 21 21 24 25 28 30 28 26 27 25 18 16 28 33 39 55 42 26 28 26 22
15 15 10 8 15 19 21 28 31 29 25 27 26 26 27 29 28 27 24 24 20 21 20 21 24 28 33 35 34 28 26 25 27 22 21 26 27 35 31 42 29 27 25 21
8 5 13 12 16 20 23 23 24 25 26 26 29 28 26 26 26 26 26 26 21 22 23 26 31 36 44 40 38 34 27 27 21 22 18 12 14 30 31 31 23 21 18 17
4 5 9 10 13 18 20 24 24 26 26 28 28 26 24 25 28 31 27 18 19 17 20 28 38 48 44 43 43 40 36 29 20 18 20 22 8 11 29 23 20 17 16 12
4 2 7 6 11 12 17 21 25 27 27 27 27 27 25 24 26 25 19 16 12 18 24 34 45 47 53 52 38 39 38 35 28 20 20 20 20 18 18 22 20 17 14 18
2 1 3 5 10 10 15 21 21 22 27 30 31 26 25 28 28 21 14 6 13 20 26 37 41 58 49 39 36 34 22 26 35 20 20 22 24 21 16 18 20 21 23 23
2 3 6 7 5 10 13 16 17 24 25 27 34 37 32 27 26 21 12 10 15 22 27 33 40 59 33 25 36 25 20 30 27 28 26 26 22 29 29 27 26 22 20 24
2 5 3 6 6 5 8 11 13 22 29 33 34 37 40 31 29 17 9 5 19 26 26 29 43 52 44 33 26 37 38 36 32 29 29 34 42 39 35 26 26 35 29 21
1 4 5 6 4 5 17 10 13 22 30 35 39 35 32 27 24 22 12 9 20 22 25 27 35 51 54 54 54 56 49 42 41 43 45 45 40 35 39 36 33 26 36 41
1 10 9 5 1 6 10 8 11 21 28 33 34 29 34 37 31 18 13 27 25 20 22 31 27 42 44 57 48 55 55 53 54 50 48 45 42 42 37 38 45 48 42 37
3 7 8 6 4 1 11 8 10 16 24 33 29 25 34 39 41 36 34 28 25 24 24 32 35 36 35 38 42 46 47 51 52 50 45 49 53 54 50 49 48 41 34 35
11 10 12 12 10 8 8 10 14 16 21 28 30 28 34 31 41 36 35 34 33 33 33 33 33 35 36 33 36 39 40 39 42 44 47 56 48 39 40 41 33 32 33 33
13 15 17 17 16 15 14 13 12 14 17 22 29 24 24 25 30 30 34 32 32 32 32 30 33 37 37 39 44 43 44 47 45 42 40 42 42 40 38 36 33 30 31 31
Wind_Direction_500mb
268 289 279 277 263 235 239 260 269 294 293 266 304 299 269 305 321 326 328 326 331 331 331 331 327 322 316 306 314 315 322 316 325 347 352 349 349 343 327 291 259 246 245 241
276 245 268 272 263 255 260 258 260 264 271 271 65 254 263 282 301 310 315 314 316 319 318 317 318 319 313 311 304 305 311 302 301 316 335 341 342 342 338 326 295 262 264 258
271 172 282 269 262 255 246 241 256 250 12 101 212 263 292 299 304 308 317 317 315 312 309 305 305 305 304 301 301 297 299 296 286 290 303 329 332 332 328 322 317 301 280 260
269 272 273 22 348 289 240 220 221 248 246 305 309 300 291 288 306 319 320 315 312 308 304 303 300 296 294 292 289 289 288 288 277 275 284 301 318 324 335 330 312 294 283 285
252 269 273 280 191 216 203 201 217 258 236 266 312 313 294 58 326 316 312 308 306 303 302 299 296 295 292 287 282 280 278 277 274 268 271 279 288 305 331 336 325 312 297 285
263 238 264 51 83 172 256 257 104 235 145 296 313 292 298 348 322 313 308 306 304 300 297 294 293 292 289 287 282 275 270 270 268 264 259 264 269 285 316 331 324 314 303 294
236 256 289 53 132 142 245 58 117 108 309 302 293 302 304 309 309 309 306 304 303 297 293 292 293 290 286 285 282 280 271 268 268 266 259 253 255 268 298 318 322 318 310 303
224 229 255 117 161 248 70 79 305 300 297 296 293 298 301 304 307 309 308 305 300 296 292 292 293 292 289 287 285 282 278 269 265 264 256 250 247 260 284 304 318 322 313 310
192 220 75 195 281 181 298 300 300 293 285 285 291 294 307 306 309 308 312 309 306 299 293 292 296 296 291 289 284 281 278 272 264 260 253 247 239 249 270 291 310 317 314 310
279 231 280 247 245 255 287 291 300 290 282 288 290 295 302 307 305 310 313 310 306 301 296 297 299 297 302 293 290 281 276 271 262 255 251 246 234 243 250 273 292 305 309 308
268 265 265 256 284 272 289 292 294 293 286 289 292 293 297 301 302 305 308 307 299 295 291 292 296 298 300 299 291 287 275 267 261 249 245 242 229 226 240 262 290 305 308 307
250 14 279 285 318 299 294 295 301 297 296 289 285 293 298 296 299 304 304 303 299 292 288 293 293 298 304 305 290 284 281 273 259 248 235 222 224 248 241 259 283 292 296 308
238 276 293 288 294 294 294 308 306 301 298 295 294 296 294 299 300 298 303 305 301 302 298 294 296 300 307 311 311 293 275 282 270 260 237 241 215 246 258 289 284 258 276 304
257 274 285 276 303 312 316 316 310 304 302 302 301 295 296 302 303 305 304 305 310 322 325 318 317 318 320 319 309 300 286 280 284 268 256 256 249 249 261 268 257 264 254 265
260 254 267 290 311 323 321 322 324 314 310 309 306 302 301 302 304 304 304 306 316 338 347 348 348 333 334 333 325 305 292 283 293 291 291 266 239 226 234 246 248 259 258 260
280 277 293 316 329 327 338 332 325 319 318 314 309 311 307 307 310 315 309 311 303 317 323 328 333 331 327 321 314 315 296 280 274 276 271 320 233 223 229 222 231 248 251 259
289 15 337 326 333 337 345 338 331 329 329 326 321 318 315 315 317 319 319 315 291 311 324 330 331 326 322 317 306 297 295 301 272 263 253 312 264 211 211 215 217 231 234 249
77 31 352 335 339 344 342 345 344 340 334 329 331 326 322 321 320 318 309 306 309 318 340 335 333 327 324 313 300 287 283 272 268 255 238 238 265 233 215 192 199 212 212 203
111 68 360 11 2 356 354 353 354 347 345 340 333 334 338 331 319 325 320 298 319 326 333 345 337 337 323 321 318 306 277 243 236 258 226 219 204 220 200 191 178 187 191 174
110 122 41 44 14 18 4 5 5 10 13 11 5 348 334 327 337 324 331 302 333 327 356 358 354 339 336 342 327 321 304 207 197 214 201 187 186 196 199 171 155 152 148 153
229 173 84 48 57 20 17 15 19 20 6 6 4 3 1 349 343 332 313 344 357 14 20 9 356 359 352 4 4 34 91 132 158 168 168 171 175 157 143 135 133 140 143 142
272 168 92 36 136 33 12 5 8 4 359 354 350 345 359 354 356 3 354 22 41 31 31 20 17 16 31 37 50 94 94 100 118 133 145 155 148 135 130 128 124 124 127 124
140 159 119 95 134 19 4 23 353 355 354 356 357 4 7 24 23 26 40 56 61 69 52 32 32 29 30 60 72 94 104 110 116 121 122 120 121 123 121 116 120 112 107 104
91 117 120 81 151 2 6 349 4 5 7 11 9 34 29 26 32 15 51 83 86 78 60 34 43 45 39 53 70 73 75 91 92 96 106 110 110 112 108 106 109 106 101 100
72 99 123 112 135 301 19 26 28 21 24 24 25 32 20 37 51 80 54 58 73 58 47 49 58 54 52 56 59 62 75 96 84 82 101 108 100 98 98 102 107 103 97 97
89 76 79 84 80 57 26 44 51 41 35 34 33 29 36 50 49 55 55 63 62 60 59 59 57 49 57 63 68 74 74 70 68 83 100 102 101 95 101 107 89 85 84 86
90 86 87 80 80 68 66 61 61 51 44 42 41 42 44 46 49 53 54 56 60 60 60 59 55 58 68 71 73 73 77 79 84 89 91 96 93 91 92 95 87 87 89 89
Wind_Speed_850mb
20 14 16 19 19 19 22 22 20 18 14 12 14 5 5 6 10 16 20 21 21 23 26 30 31 31 28 27 27 27 29 24 21 17 19 22 21 20 21 23 28 34 40 43
23 9 17 22 24 25 26 25 24 22 26 22 5 12 13 12 14 21 25 25 27 31 33 32 33 35 35 34 32 30 28 23 21 20 16 19 19 18 18 18 20 29 34 42
23 3 19 27 30 34 33 26 19 22 6 8 10 11 15 21 25 29 30 29 35 39 38 37 37 35 37 37 36 32 28 24 23 20 19 14 17 18 19 19 20 22 30 42
16 12 22 3 7 15 20 17 14 12 8 2 8 18 28 30 22 22 30 38 41 40 40 40 40 41 40 39 38 36 33 28 25 27 23 17 15 17 21 22 23 25 24 28
8 17 22 31 9 8 12 15 12 15 5 9 10 25 32 7 15 30 41 43 45 42 43 46 46 43 42 43 43 40 39 34 30 28 29 22 16 15 18 23 25 27 31 31
14 9 7 12 7 1 3 20 14 3 3 7 19 19 17 35 37 41 46 49 50 52 52 49 47 45 46 45 44 45 41 39 36 32 31 29 22 17 19 22 23 27 30 32
19 10 14 8 8 4 14 6 11 5 14 21 21 28 40 44 45 48 49 51 51 51 46 50 50 45 45 45 46 44 45 43 40 35 33 35 28 20 19 21 25 29 33 33
19 11 16 9 12 13 9 3 9 20 23 25 28 35 40 45 48 54 52 49 44 46 45 40 38 39 41 43 43 45 45 46 42 37 34 37 32 24 22 21 25 28 30 31
12 7 4 10 6 2 7 18 25 26 24 25 32 40 44 45 47 45 48 42 35 33 34 36 35 36 45 51 44 44 45 44 44 39 37 40 33 27 20 21 18 22 27 30
6 11 9 16 17 18 21 21 23 26 31 34 36 39 43 49 44 41 38 38 37 35 36 42 38 39 39 41 40 42 44 43 43 43 40 37 33 28 21 16 16 21 27 36
17 23 21 20 11 10 15 23 29 32 29 29 29 39 41 43 40 39 41 42 40 42 42 44 43 43 43 43 36 40 40 39 41 43 39 37 36 30 25 24 21 26 32 38
11 11 7 7 11 19 27 32 32 30 34 31 31 38 42 39 37 40 44 44 45 41 42 42 40 42 43 35 32 34 34 34 36 40 40 24 25 23 21 19 19 23 24 27
11 8 20 24 24 24 24 28 31 29 31 36 38 42 35 33 34 42 41 42 37 38 36 32 32 35 33 31 33 31 33 30 32 31 44 42 14 9 15 26 18 18 18 16
16 18 22 8 19 24 18 21 27 33 32 31 30 27 26 31 35 37 38 36 28 25 22 20 23 26 29 32 31 29 28 30 31 34 38 38 50 56 30 25 22 21 19 16
15 14 22 21 14 16 21 25 27 30 26 27 26 27 26 30 34 33 31 24 18 13 17 21 21 24 25 28 30 28 26 27 25 18 16 28 33 39 55 42 26 28 26 22
15 15 10 8 15 19 21 28 31 29 25 27 26 26 27 29 28 27 24 24 20 21 20 21 24 28 33 35 34 28 26 25 27 22 21 26 27 35 31 42 29 27 25 21
8 5 13 12 16 20 23 23 24 25 26 26 29 28 26 26 26 26 26 26 21 22 23 26 31 36 44 40 38 34 27 27 21 22 18 12 14 30 31 31 23 21 18 17
4 5 9 10 13 18 20 24 24 26 26 28 28 26 24 25 28 31 27 18 19 17 20 28 38 48 44 43 43 40 36 29 20 18 20 22 8 11 29 23 20 17 16 12
4 2 7 6 11 12 17 21 25 27 27 27 27 27 25 24 26 25 19 16 12 18 24 34 45 47 53 52 38 39 38 35 28 20 20 20 20 18 18 22 20 17 14 18
2 1 3 5 10 10 15 21 21 22 27 30 31 26 25 28 28 21 14 6 13 20 26 37 41 58 49 39 36 34 22 26 35 20 20 22 24 21 16 18 20 21 23 23
2 3 6 7 5 10 13 16 17 24 25 27 34 37 32 27 26 21 12 10 15 22 27 33 40 59 33 25 36 25 20 30 27 28 26 26 22 29 29 27 26 22 20 24
2 5 3 6 6 5 8 11 13 22 29 33 34 37 40 31 29 17 9 5 19 26 26 29 43 52 44 33 26 37 38 36 32 29 29 34 42 39 35 26 26 35 29 21
1 4 5 6 4 5 17 10 13 22 30 35 39 35 32 27 24 22 12 9 20 22 25 27 35 51 54 54 54 56 49 42 41 43 45 45 40 35 39 36 33 26 36 41
1 10 9 5 1 6 10 8 11 21 28 33 34 29 34 37 31 18 13 27 25 20 22 31 27 42 44 57 48 55 55 53 54 50 48 45 42 42 37 38 45 48 42 37
3 7 8 6 4 1 11 8 10 16 24 33 29 25 34 39 41 36 34 28 25 24 24 32 35 36 35 38 42 46 47 51 52 50 45 49 53 54 50 49 48 41 34 35
11 10 12 12 10 8 8 10 14 16 21 28 30 28 34 31 41 36 35 34 33 33 33 33 33 35 36 33 36 39 40 39 42 44 47 56 48 39 40 41 33 32 33 33
13 15 17 17 16 15 14 13 12 14 17 22 29 24 24 25 30 30 34 32 32 32 32 30 33 37 37 39 44 43 44 47 45 42 40 42 42 40 38 36 33 30 31 31
Wind_Direction_850mb
268 289 279 277 263 235 239 260 269 294 293 266 304 299 269 305 321 326 328 326 331 331 331 331 327 322 316 306 314 315 322 316 325 347 352 349 349 343 327 291 259 246 245 241
276 245 268 272 263 255 260 258 260 264 271 271 65 254 263 282 301 310 315 314 316 319 318 317 318 319 313 311 304 305 311 302 301 316 335 341 342 342 338 326 295 262 264 258
271 172 282 269 262 255 246 241 256 250 12 101 212 263 292 299 304 308 317 317 315 312 309 305 305 305 304 301 301 297 299 296 286 290 303 329 332 332 328 322 317 301 280 260
269 272 273 22 348 289 240 220 221 248 246 305 309 300 291 288 306 319 320 315 312 308 304 303 300 296 294 292 289 289 288 288 277 275 284 301 318 324 335 330 312 294 283 285
252 269 273 280 191 216 203 201 217 258 236 266 312 313 294 58 326 316 312 308 306 303 302 299 296 295 292 287 282 280 278 277 274 268 271 279 288 305 331 336 325 312 297 285
263 238 264 51 83 172 256 257 104 235 145 296 313 292 298 348 322 313 308 306 304 300 297 294 293 292 289 287 282 275 270 270 268 264 259 264 269 285 316 331 324 314 303 294
236 256 289 53 132 142 245 58 117 108 309 302 293 302 304 309 309 309 306 304 303 297 293 292 293 290 286 285 282 280 271 268 268 266 259 253 255 268 298 318 322 318 310 303
224 229 255 117 161 248 70 79 305 300 297 296 293 298 301 304 307 309 308 305 300 296 292 292 293 292 289 287 285 282 278 269 265 264 256 250 247 260 284 304 318 322 313 310
192 220 75 195 281 181 298 300 300 293 285 285 291 294 307 306 309 308 312 309 306 299 293 292 296 296 291 289 284 281 278 272 264 260 253 247 239 249 270 291 310 317 314 310
279 231 280 247 245 255 287 291 300 290 282 288 290 295 302 307 305 310 313 310 306 301 296 297 299 297 302 293 290 281 276 271 262 255 251 246 234 243 250 273 292 305 309 308
268 265 265 256 284 272 289 292 294 293 286 289 292 293 297 301 302 305 308 307 299 295 291 292 296 298 300 299 291 287 275 267 261 249 245 242 229 226 240 262 290 305 308 307
250 14 279 285 318 299 294 295 301 297 296 289 285 293 298 296 299 304 304 303 299 292 288 293 293 298 304 305 290 284 281 273 259 248 235 222 224 248 241 259 283 292 296 308
238 276 293 288 294 294 294 308 306 301 298 295 294 296 294 299 300 298 303 305 301 302 298 294 296 300 307 311 311 293 275 282 270 260 237 241 215 246 258 289 284 258 276 304
257 274 285 276 303 312 316 316 310 304 302 302 301 295 296 302 303 305 304 305 310 322 325 318 317 318 320 319 309 300 286 280 284 268 256 256 249 249 261 268 257 264 254 265
260 254 267 290 311 323 321 322 324 314 310 309 306 302 301 302 304 304 304 306 316 338 347 348 348 333 334 333 325 305 292 283 293 291 291 266 239 226 234 246 248 259 258 260
280 277 293 316 329 327 338 332 325 319 318 314 309 311 307 307 310 315 309 311 303 317 323 328 333 331 327 321 314 315 296 280 274 276 271 320 233 223 229 222 231 248 251 259
289 15 337 326 333 337 345 338 331 329 329 326 321 318 315 315 317 319 319 315 291 311 324 330 331 326 322 317 306 297 295 301 272 263 253 312 264 211 211 215 217 231 234 249
77 31 352 335 339 344 342 345 344 340 334 329 331 326 322 321 320 318 309 306 309 318 340 335 333 327 324 313 300 287 283 272 268 255 238 238 265 233 215 192 199 212 212 203
111 68 360 11 2 356 354 353 354 347 345 340 333 334 338 331 319 325 320 298 319 326 333 345 337 337 323 321 318 306 277 243 236 258 226 219 204 220 200 191 178 187 191 174
110 122 41 44 14 18 4 5 5 10 13 11 5 348 334 327 337 324 331 302 333 327 356 358 354 339 336 342 327 321 304 207 197 214 201 187 186 196 199 171 155 152 148 153
229 173 84 48 57 20 17 15 19 20 6 6 4 3 1 349 343 332 313 344 357 14 20 9 356 359 352 4 4 34 91 132 158 168 168 171 175 157 143 135 133 140 143 142
272 168 92 36 136 33 12 5 8 4 359 354 350 345 359 354 356 3 354 22 41 31 31 20 17 16 31 37 50 94 94 100 118 133 145 155 148 135 130 128 124 124 127 124
140 159 119 95 134 19 4 23 353 355 354 356 357 4 7 24 23 26 40 56 61 69 52 32 32 29 30 60 72 94 104 110 116 121 122 120 121 123 121 116 120 112 107 104
91 117 120 81 151 2 6 349 4 5 7 11 9 34 29 26 32 15 51 83 86 78 60 34 43 45 39 53 70 73 75 91 92 96 106 110 110 112 108 106 109 106 101 100
72 99 123 112 135 301 19 26 28 21 24 24 25 32 20 37 51 80 54 58 73 58 47 49 58 54 52 56 59 62 75 96 84 82 101 108 100 98 98 102 107 103 97 97
89 76 79 84 80 57 26 44 51 41 35 34 33 29 36 50 49 55 55 63 62 60 59 59 57 49 57 63 68 74 74 70 68 83 100 102 101 95 101 107 89 85 84 86
90 86 87 80 80 68 66 61 61 51 44 42 41 42 44 46 49 53 54 56 60 60 60 59 55 58 68 71 73 73 77 79 84 89 91 96 93 91 92 95 87 87 89 89